Location: Brno
(49.2000°N, 16.6330°E)
Time: 22:44:49
(UTC+01:00)

Daily predictions for brighter satellites

Satellite Brightness Start Highest point End
(mag) Time Altitude Azimuth Time Altitude Azimuth Time Altitude Azimuth
Cosmos 1844 Rocket 3.4 16:23:34 10° S 16:28:35 36° ESE 16:33:41 10° NE
Cosmos 2154 Rocket 4.1 16:24:25 10° N 16:30:40 86° W 16:36:55 10° S
Cosmos 1674 Rocket 4.0 16:26:14 10° SSW 16:30:40 69° WNW 16:35:08 10° N
SMAP 3.6 16:27:02 10° SE 16:31:16 36° ENE 16:35:31 10° N
EO 1 Del DPAF 3.3 16:30:34 10° NNE 16:34:30 90° S 16:38:22 10° SSW
Cosmos 1125 Rocket 3.6 16:29:29 10° SSW 16:34:47 78° ESE 16:40:08 10° NNE
Meteor 1-11 Rocket 4.2 16:29:27 10° NNW 16:34:58 67° W 16:40:26 10° S
Cosmos 1606 3.7 16:32:20 10° SSW 16:36:09 49° WNW 16:39:58 10° N
IDEFIX/ARIANE 42P 2.9 16:31:45 10° SE 16:36:38 43° ENE 16:41:30 10° N
ISS -2.3 16:35:22 10° SW 16:38:24 36° SSE 16:41:29 10° E
IRS-1A Rocket 4.2 16:33:15 10° SSE 16:38:44 81° ENE 16:44:18 10° NNW
Cosmos 1238 Rocket 3.8 16:38:52 10° SE 16:40:48 16° E 16:42:49 10° NE
MOZ.5/SAFIR/RUBIN 5/SL-8 4.3 16:36:47 10° N 16:41:24 62° WNW 16:46:01 10° SSW
Okean 1 Rocket 3.8 16:37:29 10° NNW 16:41:46 56° W 16:46:00 10° S
CORIOLIS 4.4 16:39:12 10° SE 16:44:21 46° ENE 16:49:29 10° N
MTI 4.0 16:41:18 10° N 16:44:38 76° WNW 16:47:55 10° SSW
BREEZE M DEB (TANK) 2.1 16:42:41 10° W 16:45:11 84° N 16:50:59 10° E
Cosmos 1544 Rocket 3.9 16:41:26 10° N 16:45:45 46° ENE 16:50:04 10° SSE
Thor Agena Rocket 4.2 16:41:37 10° NNE 16:46:23 35° E 16:51:10 10° SSE
CZ-2C R/B 2.6 16:41:51 10° SE 16:46:42 52° ENE 16:51:43 10° N
COSMOS 2487 3.8 16:44:38 10° N 16:47:23 20° NE 16:50:08 10° ESE
Cosmos 1844 4.3 16:42:34 10° S 16:47:37 37° ESE 16:52:42 10° NE
Abrixas 2.5 16:45:06 10° W 16:48:03 77° S 16:51:01 10° E
COSMO-SKYMED 1 4.3 16:46:19 10° ENE 16:48:29 13° E 16:50:40 10° ESE
BREEZE-M DEB (TANK) 4.4 16:39:36 10° WSW 16:51:01 87° S 16:54:32 11° E
Cosmos 1975 Rocket 3.0 16:49:39 10° S 16:53:56 70° E 16:58:16 10° NNE
Cosmos 2251 Rocket 3.5 16:49:57 10° NNW 16:55:21 72° ENE 17:00:39 10° SSE
Meteor 2-19 Rocket 4.4 16:50:21 10° N 16:56:24 67° ENE 17:02:24 10° SSE
Cosmos 1536 3.7 16:55:21 10° NNW 16:59:20 54° W 17:03:18 10° S
Cosmos 1812 3.5 16:56:41 10° SSE 17:00:06 30° E 17:03:31 10° NNE
Meteor 1-27 Rocket 4.4 16:54:40 10° SSW 17:00:24 59° WNW 17:06:04 10° N
ERBS 4.0 16:58:46 10° NW 17:01:30 22° N 17:03:33 14° NE
Okean 1 4.4 16:58:33 10° SE 17:01:51 25° E 17:05:04 11° NE
SL-8 Rocket 3.9 16:57:32 10° N 17:03:45 82° E 17:09:55 10° S
Cosmos 2278 Rocket 3.0 16:58:51 10° SSE 17:03:46 32° ESE 17:08:06 13° NE
Cosmos 1536 Rocket 4.2 17:06:33 10° SSE 17:10:38 36° E 17:14:45 10° NNE
MSX 3.8 17:05:54 10° SSE 17:11:33 60° ENE 17:17:12 10° N
Cosmos 2366 rocket 4.0 17:09:00 10° N 17:15:24 75° E 17:21:43 10° SSE
CZ-3B DEB 2.8 17:11:42 10° SSW 17:15:33 45° SE 17:22:22 16° ENE
USA 234 3.4 17:10:00 14° ENE 17:15:41 65° SE 17:22:10 10° SW
CZ-4 R/B 4.4 17:11:36 10° SSE 17:15:43 63° ENE 17:19:50 10° N
Cosmos 1346 Rocket 4.0 17:12:56 10° SE 17:15:58 22° E 17:16:57 20° ENE
ATLAS CENTAUR R/B 3.8 17:15:53 10° NW 17:18:06 13° NNW 17:20:15 10° NNE
Meteor 1-12 Rocket 4.2 17:12:19 10° N 17:18:06 71° ENE 17:23:57 10° SSE
Cosmos 1959 Rocket 4.5 17:12:08 10° N 17:18:20 87° ENE 17:24:35 10° S
YAOGAN 1 2.5 17:14:41 10° SSE 17:19:01 88° ENE 17:23:23 10° NNW
Cosmos 2218 Rocket 4.0 17:14:46 10° N 17:21:07 90° WSW 17:27:20 10° S
NOSS 3-4 (A) 4.1 17:17:25 10° NW 17:23:54 43° NNE 17:29:33 15° E
NOSS 3-4 (C) 4.1 17:17:31 10° NW 17:24:00 43° NNE 17:29:36 15° E
Cosmos 2082 Rocket 2.4 17:19:16 10° NNW 17:24:45 47° NE 17:30:13 10° SE
Cosmos 1833 Rocket 3.0 17:19:24 10° NNW 17:24:47 42° NE 17:30:06 10° ESE
Intercosmos 25 4.1 17:21:55 10° NNE 17:28:15 - SE 17:24:11 23° NE
Cosmos 2181 Rocket 4.4 17:21:39 10° SSW 17:27:59 68° WNW 17:34:26 10° N
SL-27 R/B 4.2 17:25:03 10° NW 17:28:29 37° WSW 17:31:51 10° S
CZ-3A R/B 3.6 17:23:23 10° WSW 17:28:30 89° NNW 17:48:46 18° ENE
NOSS 3-3 (A) 4.3 17:28:41 10° SSW 17:34:37 48° ESE 17:38:42 22° ENE
NOSS 3-3 (C) 4.4 17:28:48 10° SSW 17:34:44 47° ESE 17:38:46 22° ENE
BREEZE M DEB (TANK) 4.2 17:28:49 10° SSW 17:34:52 22° SSE 17:36:43 17° ESE
Cosmos 1455 Rocket 3.3 17:30:45 10° NNW 17:35:09 73° W 17:39:33 10° S
SKYMED 2 4.1 17:34:53 23° NE 17:37:02 37° E 17:41:04 10° SSE
Timation 2 Rocket 4.1 17:30:30 10° NNW 17:37:17 68° NE 17:44:09 10° SE
ATLAS 2AS CENTAUR R/B 3.8 17:31:25 10° NW 17:39:15 54° WSW 17:46:36 10° SSE
CZ-4 R/B 3.0 17:37:36 10° SSW 17:41:31 38° W 17:45:25 10° NNW
Cosmos 1975 2.8 17:38:56 10° N 17:43:03 88° WSW 17:47:06 10° S
Genesis I 3.4 17:40:48 10° NW 17:44:44 71° SW 17:48:37 10° SSE
Resurs 01 Rocket 3.8 17:49:29 12° NNE 17:49:29 12° NNE 17:49:56 10° N
Okean 1-7 Rocket 4.2 17:43:10 10° SSE 17:47:12 33° E 17:47:19 33° E
Cosmos 2263 Rocket 4.1 17:43:40 10° W 17:48:01 22° NW 17:52:24 10° N
Cosmos 1821 Rocket 4.1 17:44:05 10° N 17:49:57 46° ENE 17:55:46 10° SSE
GEOS 3 Rocket 3.5 17:46:15 10° SE 17:51:22 82° NE 17:56:31 10° NW
Meteor 2-21 4.4 17:45:14 10° N 17:51:28 79° E 17:57:36 10° SSE
Spot 2 Rocket 4.4 17:52:44 28° NE 17:52:44 28° NE 17:56:21 10° N
CZ-3A R/B 3.8 17:36:34 10° WSW 17:52:27 68° NNW 17:55:33 27° NE
OPS 8737 4.1 17:50:31 10° SW 17:53:43 83° SE 17:54:08 64° ENE
Cosmos 1743 2.7 17:52:26 10° N 17:56:17 53° ENE 18:00:04 10° SSE
Cosmos 1484 Rocket 2.8 17:56:50 10° S 18:00:34 73° WSW 18:04:18 10° NNW
Meteor 2-4 Rocket 4.5 17:56:37 10° SSE 18:00:05 29° ESE 18:00:05 29° ESE
Meteor 2-9 Rocket 4.4 17:56:46 10° N 18:02:01 43° ENE 18:04:25 27° ESE
Cosmos 1500 3.6 18:00:14 10° NNW 18:04:02 62° W 18:07:49 10° S
SL-24 DEB 4.4 18:01:28 10° N 18:06:14 74° W 18:10:54 10° SSW
Cosmos 1844 Rocket 3.6 18:07:02 10° SW 18:12:23 45° NW 18:16:41 16° NNE
Meteor 2-14 Rocket 4.3 18:06:34 10° N 18:12:47 84° E 18:18:56 10° S
ISS -2.8 18:11:30 10° W 18:14:21 58° WNW 18:14:21 58° WNW
IDEFIX/ARIANE 42P 4.5 18:11:48 10° SSW 18:16:22 31° W 18:20:57 10° NNW
Nadezhda 3 Rocket 3.9 18:11:51 10° S 18:18:03 82° E 18:24:22 10° N
COSMOS 2487 4.0 18:19:43 10° NW 18:23:04 36° WSW 18:26:23 10° S
Abrixas 4.3 18:20:45 10° W 18:22:47 30° SW 18:22:47 30° SW
COSMO-SKYMED 1 2.7 18:23:27 36° N 18:25:11 74° WNW 18:29:30 10° SSW
SL-8 R/B 3.8 18:23:57 10° WSW 18:28:38 57° SSE 18:28:42 57° SSE
Cosmos 2297 3.5 18:28:28 10° SSW 18:34:06 75° ESE 18:34:51 65° ENE
Cosmos 1190 Rocket 4.2 18:31:08 10° NNW 18:35:28 54° NNE 18:35:28 54° NNE
BREEZE-M R/B 3.6 18:28:50 10° WSW 18:37:34 67° SSE 18:38:01 64° SE
Cosmos 2278 Rocket 2.9 18:42:10 10° SW 18:47:38 50° NW 18:49:59 31° N
Cosmos 1346 Rocket 4.3 18:48:39 10° SW 18:52:13 33° WNW 18:52:32 32° WNW
USA 234 3.5 18:57:21 50° NNE 18:58:42 60° NNW 19:05:06 10° W
BREEZE-M DEB (TANK) 3.2 18:54:12 10° WNW 18:59:04 65° NW 18:59:04 65° NW
FengYun 1-2 T 4.2 19:01:20 80° NW 19:01:20 80° NW 19:06:45 10° NNW
Cosmos 921 Rocket 4.4 18:57:36 10° SSW 19:00:04 33° SW 19:00:04 33° SW
Meteor 1-15 Rocket 4.4 19:01:18 10° NNW 19:07:14 76° W 19:07:44 70° SW
Cosmos 2082 Rocket 3.7 19:03:39 10° NW 19:08:41 34° WSW 19:13:44 10° S
Cosmos 1833 Rocket 3.9 19:03:29 10° NW 19:08:42 39° WSW 19:13:52 10° S
Cosmos 1934 Rocket 4.3 19:02:36 10° NNW 19:08:42 63° W 19:14:51 10° S
NOSS 3-4 (A) 4.0 19:08:22 10° NW 19:15:15 66° SW 19:17:04 50° S
NOSS 3-4 (C) 4.0 19:08:28 10° NW 19:15:21 66° SW 19:17:07 51° S
BREEZE-M DEB (TANK) 4.0 19:20:56 10° WNW 19:34:43 65° NNW 19:34:43 65° NNW
CZ-3B DEB 3.6 19:44:02 10° W 19:50:15 67° N 19:50:53 65° NNE
